Dublin, Ireland

3:55 PM GMT on February 08, 2016 (GMT +0000)
Dublin International

Weather History for EIDW - September, 2013

Change the Weather History Date:

Monday, September 30, 2013

  Actual Average Record
Temperature  
Mean Temperature 55 °F -  
Max Temperature 59 °F 57 °F 68 °F (2011)
Min Temperature 51 °F 46 °F 41 °F (2010)
Degree Days  
Heating Degree Days 10    
Growing Degree Days 5 (Base 50)    
Moisture  
Dew Point 54 °F    
Average Humidity 91    
Maximum Humidity 100    
Minimum Humidity 82    
Precipitation  
Precipitation 0.00 in 0.09 in - ()
Sea Level Pressure  
Sea Level Pressure 29.67 in    
Wind  
Wind Speed 10 mph ()    
Max Wind Speed 17 mph    
Max Gust Speed 29 mph    
Visibility 5.4 miles    
Events Rain    
Averages and records for this station are not official NWS values.
T = Trace of Precipitation, MM = Missing Value Source: Averaged Metar Reports

Daily Weather History Graph

Daily Weather History Graph

Search for Another Location

Airport or City:

Trip Planner

Search our weather history database for the weather conditions in past years. The results will help you decide how hot, cold, wet, or windy it might be!

Date:

Astronomy

Sep. 30, 2013 Rise Set
Actual Time 7:24 AM IST 7:03 PM IST
Civil Twilight 6:50 AM IST 7:38 PM IST
Nautical Twilight 6:09 AM IST 8:19 PM IST
Astronomical Twilight 5:27 AM IST 9:00 PM IST
Moon 2:15 AM IST (9/30) 4:55 PM IST (9/30)
Length of Visible Light 12h 48m
Length of Day
11h 38m
Waning Crescent, 21% of the Moon is Illuminated
Sep 30
Waning Crescent
Oct 5
New
Oct 12
First Quarter
Oct 19
Full
Oct 27
Last Quarter

Hourly Weather History & Observations

Time (IST) Temp. Dew Point Humidity Pressure Visibility Wind Dir Wind Speed Gust Speed Precip Events Conditions
12:00 AM 55.4 °F 51.8 °F 88% 29.71 in 6.2 mi East 8.1 mph - N/A   Mostly Cloudy
12:30 AM 55.4 °F 51.8 °F 88% 29.71 in 6.2 mi East 10.4 mph - N/A   Mostly Cloudy
1:00 AM 53 °F 51 °F 91% 29.72 in 19 mi East 8.9 mph - -   Scattered Clouds
1:00 AM 53.6 °F 51.8 °F 94% 29.71 in 6.2 mi East 8.1 mph - N/A   Mostly Cloudy
1:30 AM 51.8 °F 51.8 °F 100% 29.71 in 6.2 mi East 9.2 mph - N/A   Mostly Cloudy
2:00 AM 53.6 °F 51.8 °F 94% 29.71 in 6.2 mi East 8.1 mph - N/A   Mostly Cloudy
2:30 AM 51.8 °F 50.0 °F 94% 29.71 in 6.2 mi ESE 8.1 mph - N/A   Mostly Cloudy
3:00 AM 53.6 °F 51.8 °F 94% 29.71 in 6.2 mi ESE 5.8 mph - N/A   Mostly Cloudy
3:30 AM 53.6 °F 51.8 °F 94% 29.68 in 6.2 mi ESE 6.9 mph - N/A   Mostly Cloudy
4:00 AM 53.6 °F 50.0 °F 88% 29.68 in 6.2 mi ESE 8.1 mph - N/A   Mostly Cloudy
4:30 AM 53.6 °F 51.8 °F 94% 29.68 in 6.2 mi ESE 11.5 mph - N/A   Mostly Cloudy
5:00 AM 55.4 °F 51.8 °F 88% 29.68 in 6.2 mi ESE 10.4 mph - N/A   Mostly Cloudy
5:30 AM 53.6 °F 51.8 °F 94% 29.68 in 6.2 mi ESE 10.4 mph - N/A   Mostly Cloudy
6:00 AM 53.6 °F 51.8 °F 94% 29.65 in 6.2 mi ESE 9.2 mph - N/A   Mostly Cloudy
6:30 AM 55.4 °F 51.8 °F 88% 29.65 in 6.2 mi ESE 9.2 mph - N/A   Mostly Cloudy
7:00 AM 55.4 °F 51.8 °F 88% 29.65 in 6.2 mi ESE 9.2 mph - N/A   Mostly Cloudy
7:30 AM 55.4 °F 51.8 °F 88% 29.65 in 6.2 mi ESE 8.1 mph - N/A   Mostly Cloudy
8:00 AM 55.4 °F 51.8 °F 88% 29.68 in 6.2 mi ESE 8.1 mph - N/A   Mostly Cloudy
8:30 AM 55.4 °F 51.8 °F 88% 29.68 in 6.2 mi East 8.1 mph - N/A   Mostly Cloudy
9:00 AM 55.4 °F 53.6 °F 94% 29.65 in 5.6 mi East 9.2 mph - N/A   Mostly Cloudy
9:30 AM 57.2 °F 53.6 °F 88% 29.65 in 5.6 mi East 8.1 mph - N/A   Mostly Cloudy
10:00 AM 57.2 °F 53.6 °F 88% 29.65 in 5.0 mi ESE 8.1 mph - N/A   Mostly Cloudy
10:30 AM 59.0 °F 53.6 °F 82% 29.65 in 5.6 mi ESE 11.5 mph - N/A   Mostly Cloudy
11:00 AM 57.2 °F 53.6 °F 88% 29.65 in 6.2 mi ESE 11.5 mph - N/A   Mostly Cloudy
11:30 AM 57.2 °F 53.6 °F 88% 29.65 in 5.6 mi ESE 15.0 mph - N/A   Mostly Cloudy
12:00 PM 59.0 °F 53.6 °F 82% 29.65 in 6.2 mi ESE 13.8 mph - N/A   Mostly Cloudy
12:30 PM 57.2 °F 53.6 °F 88% 29.65 in 3.7 mi ESE 15.0 mph - N/A   Mostly Cloudy
1:00 PM 57 °F 54 °F 84% 29.67 in 4 mi ESE 15.7 mph - - Rain Light Drizzle
1:00 PM 57.2 °F 53.6 °F 88% 29.65 in 3.7 mi ESE 16.1 mph - N/A   Light Drizzle
1:30 PM 57.2 °F 53.6 °F 88% 29.65 in 3.7 mi ESE 16.1 mph - N/A   Light Drizzle
2:00 PM 57.2 °F 55.4 °F 94% 29.65 in 2.5 mi ESE 11.5 mph - N/A   Light Drizzle
2:30 PM 57.2 °F 55.4 °F 94% 29.65 in 2.5 mi ESE 17.3 mph 28.8 mph N/A   Light Drizzle
3:00 PM 57.2 °F 53.6 °F 88% 29.65 in 2.5 mi SE 15.0 mph - N/A   Light Drizzle
3:30 PM 57.2 °F 53.6 °F 88% 29.65 in 3.7 mi SE 12.7 mph - N/A   Overcast
4:00 PM 57.2 °F 53.6 °F 88% 29.65 in 4.3 mi ESE 11.5 mph - N/A   Overcast
4:30 PM 57.2 °F 55.4 °F 94% 29.65 in 4.3 mi ESE 11.5 mph - N/A   Light Drizzle
5:00 PM 57.2 °F 55.4 °F 94% 29.65 in 4.3 mi SE 10.4 mph - N/A   Light Drizzle
5:30 PM 57.2 °F 55.4 °F 94% 29.65 in 4.3 mi ESE 11.5 mph - N/A   Overcast
6:00 PM 57.2 °F 55.4 °F 94% 29.65 in 4.3 mi SE 11.5 mph - N/A   Overcast
6:30 PM 57.2 °F 55.4 °F 94% 29.65 in 4.3 mi ESE 12.7 mph - N/A   Overcast
7:00 PM 57 °F 55 °F 92% 29.67 in 4 mi ESE 13.4 mph - -   Mist
7:00 PM 57.2 °F 55.4 °F 94% 29.65 in 4.3 mi ESE 13.8 mph - N/A   Overcast
7:30 PM 57.2 °F 55.4 °F 94% 29.65 in 4.3 mi SE 13.8 mph - N/A   Overcast
8:00 PM 57.2 °F 55.4 °F 94% 29.65 in 4.3 mi SE 13.8 mph - N/A   Overcast
8:30 PM 57.2 °F 55.4 °F 94% 29.68 in 4.3 mi SE 11.5 mph - N/A   Overcast
9:00 PM 59.0 °F 55.4 °F 88% 29.68 in 4.3 mi SE 12.7 mph - N/A   Overcast
9:30 PM 59.0 °F 55.4 °F 88% 29.68 in 5.6 mi SE 12.7 mph - N/A   Mostly Cloudy
10:00 PM 59.0 °F 55.4 °F 88% 29.68 in 6.2 mi SE 12.7 mph - N/A   Mostly Cloudy
10:30 PM 59.0 °F 57.2 °F 94% 29.68 in 5.0 mi SE 11.5 mph - N/A Rain Light Rain
11:00 PM 59.0 °F 57.2 °F 94% 29.68 in 5.0 mi SE 12.7 mph - N/A   Mostly Cloudy
11:30 PM 59.0 °F 57.2 °F 94% 29.68 in 5.0 mi SE 12.7 mph - N/A Rain Light Rain